COSMOS 2251 DEB, 34721

Orbit data source: Space-Track

COSMOS 2251 DEB, 34721 is space debris in LEO originally from a launch on Wed, 16 Jun 1993 UTC launched from the Plesetsk Missile And Space Complex (PKMTR). The debris from Iridium 33, an American commercial communications satellite, has been tracked extensively since its accidental collision with the defunct Russian satellite Cosmos 2251 in 2009. This event, occurring at high speed in low Earth orbit (LEO), generated thousands of pieces of space debris, significantly increasing the risk of further collisions. The Iridium 33 debris cloud has impacted space traffic management and orbital debris mitigation strategies, making it a subject of ongoing study in space situational awareness.

Loading next visibility...
Identifier
34721, 1993-036YP
Orbit
LEO
Country
Flag of CISCIS
Related business
Manufacturer
Unknown
Mission
Spacecraft
Bus & Motor
Unknown
Mass
Unknown
Launch date (UTC)
1993-06-16 (33 years ago)
Launch vehicle
Unknown
Launch site
Plesetsk Missile And Space Complex (PKMTR)
Object type
Payload
Rocket body
Debris
Shape & HBR
Unknown shape, 0.1 m
Radar Cross Section
Medium (>0.1 m² and <1 m²)

Expand to show TLE details & history
Last TLE update: 1 day ago

TLE from 1 day ago
0 COSMOS 2251 DEB
1 34721U 93036YP  26206.96306778  .00001890  00000-0  11146-2 0  9993
2 34721  73.9231 295.2343 0214740 189.3239 288.4057 13.97698103882958
Epoch: 2026-07-25T23:06Z
TLE epoch observation values (Epoch: 2026-07-25T23:06:49.056Z)
Latitude
60.35262°
Longitude
154.6187°
Altitude
865.377 km
Speed
7.449 km/s
True Right ascension
05h 39m 57s
True Declination
60° 12' 24"
Sunlit
Object was in daylight at epoch
Visualization orbit readout
Latitude
Unknown
Longitude
Unknown
Altitude
Unknown
Speed
Unknown
Apparent Right ascension
Unknown
Apparent Declination
Unknown
Sunlit
N/A
Visualization observer readout
Local Sidereal Time
20:30:18
Azimuth
Unknown
Elevation
Unknown
Doppler factor
Unknown
Orbital elements
Apogee altitude
1,055.731 km
Perigee altitude
743.173 km
Semi-major axis
7,277.589 km
Eccentricity
0.02147
Inclination
73.9231°
RAAN
295.2343°
Arg. of periapsis
189.3239°
True anomaly
286.05155°
Mean anomaly
288.4057°
Eccentric anomaly
287.23055°
Mean motion
3.49592 °/min
Orbital period
102.98 mins
BSTAR
0.0011146
Loading maneuver chart data...
Computing Atmospheric mass density...

Documentation

Showing up to 5 results
|